Colorado Springs, CO

1:07 AM MST on February 11, 2016 (GMT -0700)
City Of Colorado Springs Municipal

Weather History for KCOS - March, 2013

Change the Weather History Date:

Thursday, March 28, 2013

  Actual Average Record
Temperature  
Mean Temperature 46 °F 42 °F  
Max Temperature 62 °F 55 °F 80 °F (1963)
Min Temperature 29 °F 29 °F -3 °F (1899)
Degree Days  
Heating Degree Days 19 23  
Month to date heating degree days 771 737  
Since 1 July heating degree days 5115 5300  
Cooling Degree Days 0 0  
Month to date cooling degree days 0 0  
Year to date cooling degree days 0 0  
Moisture  
Dew Point 24 °F    
Average Humidity 52    
Maximum Humidity 85    
Minimum Humidity 19    
Precipitation  
Precipitation 0.00 in 0.04 in 0.56 in (1985)
Month to date precipitation 0.18 0.90  
Year to date precipitation 1.26 1.56  
Snow  
Snow 0.00 in 0.20 in 7.20 in (1985)
Month to date snowfall 4.1 7.3  
Since 1 July snowfall 24.1 31.3  
Snow Depth 0.00 in    
Sea Level Pressure  
Sea Level Pressure 30.08 in    
Wind  
Wind Speed 4 mph (ENE)    
Max Wind Speed 20 mph    
Max Gust Speed 31 mph    
Visibility 10 miles    
Events      
T = Trace of Precipitation, MM = Missing Value Source: NWS Daily Summary

Daily Weather History Graph

Daily Weather History Graph

Search for Another Location

Airport or City:

Trip Planner

Search our weather history database for the weather conditions in past years. The results will help you decide how hot, cold, wet, or windy it might be!

Date:

Astronomy

Mar. 28, 2013 Rise Set
Actual Time 6:49 AM MDT 7:18 PM MDT
Civil Twilight 6:22 AM MDT 7:45 PM MDT
Nautical Twilight 5:51 AM MDT 8:17 PM MDT
Astronomical Twilight 5:19 AM MDT 8:49 PM MDT
Moon 9:11 PM MDT (3/28) 7:20 AM MDT (3/28)
Length of Visible Light 13h 22m
Length of Day
12h 29m
Full, 98% of the Moon is Illuminated
Mar 28
Full
Apr 2
Last Quarter
Apr 10
New
Apr 18
First Quarter
Apr 25
Full

Hourly Weather History & Observations

Time (MDT) Temp. Windchill Dew Point Humidity Pressure Visibility Wind Dir Wind Speed Gust Speed Precip Events Conditions
12:54 AM 36.0 °F 32.1 °F 28.0 °F 73% 30.13 in 10.0 mi ESE 4.6 mph - N/A   Clear
1:54 AM 36.0 °F 30.3 °F 28.0 °F 73% 30.11 in 10.0 mi East 6.9 mph - N/A   Clear
2:54 AM 35.1 °F 27.9 °F 27.0 °F 72% 30.09 in 10.0 mi East 9.2 mph - N/A   Partly Cloudy
3:54 AM 30.9 °F 26.2 °F 25.0 °F 79% 30.10 in 10.0 mi North 4.6 mph - N/A   Partly Cloudy
4:54 AM 28.9 °F 21.9 °F 24.1 °F 82% 30.10 in 10.0 mi NNE 6.9 mph - N/A   Clear
5:54 AM 33.1 °F 30.0 °F 26.1 °F 75% 30.08 in 10.0 mi ENE 3.5 mph - N/A   Clear
6:54 AM 30.0 °F 23.2 °F 25.0 °F 82% 30.12 in 10.0 mi NNE 6.9 mph - N/A   Clear
7:54 AM 36.0 °F 32.1 °F 28.9 °F 76% 30.12 in 10.0 mi NNE 4.6 mph - N/A   Clear
8:54 AM 43.0 °F - 27.0 °F 53% 30.10 in 10.0 mi Calm Calm - N/A   Clear
9:54 AM 46.0 °F - 27.0 °F 47% 30.10 in 10.0 mi Calm Calm - N/A   Clear
10:54 AM 50.0 °F - 27.0 °F 41% 30.09 in 10.0 mi Calm Calm - N/A   Partly Cloudy
11:54 AM 55.0 °F - 23.0 °F 29% 30.06 in 10.0 mi SSW 3.5 mph - N/A   Scattered Clouds
12:54 PM 59.0 °F - 21.0 °F 23% 30.03 in 10.0 mi South 9.2 mph - N/A   Scattered Clouds
1:54 PM 61.0 °F - 18.0 °F 19% 30.01 in 10.0 mi South 9.2 mph - N/A   Mostly Cloudy
2:54 PM 60.1 °F - 18.0 °F 20% 30.01 in 10.0 mi Variable 3.5 mph - N/A   Mostly Cloudy
3:54 PM 59.0 °F - 19.0 °F 21% 30.04 in 10.0 mi ENE 12.7 mph - N/A   Mostly Cloudy
4:54 PM 59.0 °F - 21.9 °F 24% 30.07 in 10.0 mi Variable 4.6 mph - N/A   Mostly Cloudy
5:54 PM 59.0 °F - 21.0 °F 23% 30.05 in 10.0 mi Calm Calm - N/A   Mostly Cloudy
6:54 PM 57.0 °F - 23.0 °F 27% 30.09 in 10.0 mi South 4.6 mph - N/A   Mostly Cloudy
7:54 PM 54.0 °F - 26.1 °F 34% 30.12 in 10.0 mi NW 8.1 mph - N/A   Mostly Cloudy
8:54 PM 53.1 °F - 26.1 °F 35% 30.09 in 10.0 mi Calm Calm - N/A   Mostly Cloudy
9:54 PM 52.0 °F - 26.1 °F 37% 30.09 in 10.0 mi Calm Calm - N/A   Mostly Cloudy
10:54 PM 42.1 °F - 25.0 °F 51% 30.12 in 10.0 mi Calm Calm - N/A   Partly Cloudy
11:54 PM 42.1 °F - 26.1 °F 53% 30.10 in 10.0 mi Calm Calm - N/A   Partly Cloudy